Location: Ca�n Batista
(41.4099°N, 1.7752°E)
Time: 15:16:18
(UTC+00:00)

SJ 16-02 - Pass Details

Date: 03 March 2021
Orbit: 605 x 617 km, 75.0° (Epoch: 22 April)

Event Time Altitude Azimuth Distance (km) Brightness Sun altitude
Rises 19:35:13 0° 354° (N) 2,881 5.0 -21.2°
Reaches altitude 10° 19:37:54 10° 10° (N) 1,974 3.9 -21.7°
Enters shadow 19:39:06 15° 23° (NNE) 1,644 3.4 -21.9°
